Weather History for Rensselaer, IN

Change the Weather History Date:

Friday, December 9, 2011

  Actual Average (KVPZ) Record (KVPZ)
Temperature  
Mean Temperature 26 °F 30 °F  
Max Temperature 32 °F 36 °F 52 °F (1999)
Min Temperature 19 °F 23 °F -3 °F (2000)
Degree Days  
Heating Degree Days 40 35  
Month to date heating degree days 301  
Since 1 July heating degree days 1559  
Cooling Degree Days 0 0  
Month to date cooling degree days 0  
Year to date cooling degree days 713  
Moisture  
Dew Point 24 °F    
Average Humidity 82    
Maximum Humidity 100    
Minimum Humidity 60    
Precipitation  
Precipitation 0.00 in 0.07 in 0.76 in (2008)
Month to date precipitation 0.76  
Year to date precipitation 36.09  
Sea Level Pressure  
Sea Level Pressure 30.28 in    
Wind  
Wind Speed 6 mph (WNW)    
Max Wind Speed 15 mph    
Max Gust Speed 18 mph    
Visibility 8 miles    
Events Snow    
T = Trace of Precipitation, MM = Missing Value Source: NWS Daily Summary

Daily Weather History Graph

Daily Weather History Graph

Search for Another Location

Airport:

Trip Planner

Search our weather history database for the weather conditions in past years. The results will help you decide how hot, cold, wet, or windy it might be!

Date:

Astronomy

Dec. 09, 2011 Rise Set
Actual Time 7:01 AM CST 4:20 PM CST
Civil Twilight 6:30 AM CST 4:51 PM CST
Nautical Twilight 5:56 AM CST 5:25 PM CST
Astronomical Twilight 5:22 AM CST 5:59 PM CST
Moon 3:43 PM CST (12/9) 6:08 AM CST (12/9)
Length of Visible Light 10h 20m
Length of Day
9h 19m
Waxing Gibbous, 99% of the Moon is Illuminated
Dec 9
Waxing Gibbous
Dec 10
Full
Dec 17
Last Quarter
Dec 24
New
Jan 1
First Quarter

Hourly Weather History & Observations

Time (CST) Temp. Windchill Dew Point Humidity Pressure Visibility Wind Dir Wind Speed Gust Speed Precip Events Conditions
12:15 AM 32.0 °F 26.4 °F 30.2 °F 93% 30.19 in 4.0 mi NNW 5.8 mph - N/A Snow Light Snow
12:35 AM 32.0 °F 25.6 °F 30.2 °F 93% 30.19 in 4.0 mi NNW 6.9 mph - N/A Snow Light Snow
12:55 AM 32.0 °F 28.7 °F 30.2 °F 93% 30.19 in 2.5 mi NNW 3.5 mph - N/A Snow Light Snow
1:15 AM 32.0 °F 28.7 °F 30.2 °F 93% 30.19 in 2.5 mi North 3.5 mph - N/A Snow Light Snow
1:35 AM 32.0 °F - 32.0 °F 100% 30.19 in 1.8 mi Calm Calm - N/A Snow Light Snow
1:55 AM 32.0 °F 28.7 °F 30.2 °F 93% 30.19 in 2.0 mi NW 3.5 mph - N/A Snow Light Snow
2:15 AM 32.0 °F 28.7 °F 30.2 °F 93% 30.19 in 2.0 mi NW 3.5 mph - N/A Snow Light Snow
2:35 AM 32.0 °F - 30.2 °F 93% 30.19 in 3.0 mi Calm Calm - N/A Snow Light Snow
2:55 AM 32.0 °F - 30.2 °F 93% 30.19 in 4.0 mi Calm Calm - N/A Snow Light Snow
3:15 AM 32.0 °F - 30.2 °F 93% 30.19 in 4.0 mi Calm Calm - N/A Snow Light Snow
3:35 AM 32.0 °F - 30.2 °F 93% 30.19 in 2.5 mi Calm Calm - N/A Snow Light Snow
3:55 AM 32.0 °F - 30.2 °F 93% 30.19 in 2.0 mi Calm Calm - N/A Snow Light Snow
4:15 AM 30.2 °F - 30.2 °F 100% 30.19 in 3.0 mi Calm Calm - N/A Snow Light Snow
4:35 AM 30.2 °F - 30.2 °F 100% 30.19 in 3.0 mi Calm Calm - N/A Snow Light Snow
4:55 AM 30.2 °F - 30.2 °F 100% 30.20 in 3.0 mi Calm Calm - N/A Snow Light Snow
5:15 AM 32.0 °F - 30.2 °F 93% 30.20 in 3.0 mi Calm Calm - N/A Snow Light Snow
5:35 AM 30.2 °F 25.4 °F 30.2 °F 100% 30.20 in 5.0 mi NW 4.6 mph - N/A Snow Light Snow
5:55 AM 30.2 °F 23.4 °F 30.2 °F 100% 30.21 in 7.0 mi WNW 6.9 mph - N/A   Overcast
6:15 AM 30.2 °F 24.3 °F 30.2 °F 100% 30.22 in 7.0 mi WNW 5.8 mph - N/A   Overcast
6:35 AM 30.2 °F 25.4 °F 30.2 °F 100% 30.23 in 7.0 mi WNW 4.6 mph - N/A   Overcast
6:55 AM 30.2 °F 23.4 °F 30.2 °F 100% 30.24 in 7.0 mi WNW 6.9 mph - N/A   Overcast
7:15 AM 30.2 °F 25.4 °F 30.2 °F 100% 30.24 in 5.0 mi West 4.6 mph - N/A   Overcast
7:35 AM 30.2 °F 21.9 °F 28.4 °F 93% 30.24 in 5.0 mi NW 9.2 mph - N/A Snow Light Snow
7:55 AM 28.4 °F 20.4 °F 26.6 °F 93% 30.25 in 7.0 mi NW 8.1 mph - N/A Snow Light Snow
8:15 AM 28.4 °F 22.2 °F 26.6 °F 93% 30.25 in 10.0 mi NW 5.8 mph - N/A   Overcast
8:35 AM 28.4 °F 21.2 °F 26.6 °F 93% 30.27 in 10.0 mi NW 6.9 mph - N/A   Overcast
8:55 AM 28.4 °F 21.2 °F 26.6 °F 93% 30.28 in 10.0 mi NW 6.9 mph - N/A   Overcast
9:15 AM 28.4 °F 21.2 °F 26.6 °F 93% 30.28 in 10.0 mi WNW 6.9 mph - N/A   Overcast
9:35 AM 28.4 °F 22.2 °F 26.6 °F 93% 30.29 in 10.0 mi West 5.8 mph - N/A   Overcast
9:55 AM 28.4 °F 22.2 °F 26.6 °F 93% 30.29 in 10.0 mi West 5.8 mph - N/A   Overcast
10:15 AM 28.4 °F 21.2 °F 26.6 °F 93% 30.29 in 10.0 mi WNW 6.9 mph - N/A   Overcast
10:35 AM 28.4 °F 18.5 °F 24.8 °F 86% 30.30 in 10.0 mi WNW 11.5 mph - N/A   Overcast
10:55 AM 30.2 °F 22.6 °F 23.0 °F 75% 30.30 in 10.0 mi WNW 8.1 mph - N/A   Mostly Cloudy
11:15 AM 30.2 °F 21.3 °F 23.0 °F 75% 30.29 in 10.0 mi West 10.4 mph - N/A   Scattered Clouds
11:35 AM 30.2 °F 20.8 °F 21.2 °F 69% 30.29 in 10.0 mi West 11.5 mph - N/A   Scattered Clouds
11:55 AM 30.2 °F 20.8 °F 21.2 °F 69% 30.29 in 10.0 mi West 11.5 mph - N/A   Clear
12:15 PM 30.2 °F 20.2 °F 21.2 °F 69% 30.29 in 10.0 mi West 12.7 mph - N/A   Scattered Clouds
12:35 PM 30.2 °F 20.2 °F 21.2 °F 69% 30.29 in 10.0 mi WNW 12.7 mph 17.3 mph N/A   Clear
12:55 PM 30.2 °F 20.8 °F 21.2 °F 69% 30.29 in 10.0 mi WNW 11.5 mph - N/A   Clear
1:15 PM 30.2 °F 20.2 °F 19.4 °F 64% 30.29 in 10.0 mi WNW 12.7 mph 17.3 mph N/A   Clear
1:35 PM 30.2 °F 21.3 °F 17.6 °F 60% 30.29 in 10.0 mi WNW 10.4 mph 16.1 mph N/A   Clear
1:55 PM 30.2 °F 20.2 °F 17.6 °F 60% 30.29 in 10.0 mi WNW 12.7 mph - N/A   Clear
2:15 PM 30.2 °F 21.3 °F 17.6 °F 60% 30.30 in 10.0 mi WNW 10.4 mph - N/A   Clear
2:35 PM 30.2 °F 21.3 °F 19.4 °F 64% 30.31 in 10.0 mi West 10.4 mph - N/A   Clear
2:55 PM 30.2 °F 19.3 °F 19.4 °F 64% 30.31 in 10.0 mi West 15.0 mph 18.4 mph N/A   Scattered Clouds
3:15 PM 30.2 °F 20.2 °F 19.4 °F 64% 30.32 in 10.0 mi West 12.7 mph - N/A   Scattered Clouds
3:35 PM 28.4 °F 19.1 °F 19.4 °F 69% 30.33 in 10.0 mi West 10.4 mph - N/A   Scattered Clouds
3:55 PM 28.4 °F 19.1 °F 17.6 °F 64% 30.34 in 10.0 mi West 10.4 mph - N/A   Scattered Clouds
4:15 PM 28.4 °F 20.4 °F 17.6 °F 64% 30.34 in 10.0 mi West 8.1 mph - N/A   Clear
4:35 PM 26.6 °F 18.2 °F 17.6 °F 69% 30.35 in 10.0 mi West 8.1 mph - N/A   Clear
4:55 PM 26.6 °F 18.2 °F 17.6 °F 69% 30.35 in 10.0 mi West 8.1 mph - N/A   Clear
5:15 PM 26.6 °F 19.1 °F 15.8 °F 64% 30.36 in 10.0 mi West 6.9 mph - N/A   Clear
5:35 PM 24.8 °F 17.9 °F 15.8 °F 69% 30.37 in 10.0 mi West 5.8 mph - N/A   Clear
5:55 PM 23.0 °F 14.7 °F 15.8 °F 74% 30.37 in 10.0 mi West 6.9 mph - N/A   Clear
6:15 PM 23.0 °F 14.7 °F 15.8 °F 74% 30.39 in 10.0 mi West 6.9 mph - N/A   Clear
6:35 PM 23.0 °F 13.9 °F 14.0 °F 68% 30.39 in 10.0 mi West 8.1 mph - N/A   Clear
6:55 PM 23.0 °F 14.7 °F 12.2 °F 63% 30.40 in 10.0 mi West 6.9 mph - N/A   Clear
7:15 PM 21.2 °F 12.6 °F 12.2 °F 68% 30.40 in 10.0 mi West 6.9 mph - N/A   Clear
7:35 PM 21.2 °F 12.6 °F 12.2 °F 68% 30.41 in 10.0 mi West 6.9 mph - N/A   Clear
8:15 PM 19.4 °F 11.5 °F 12.2 °F 74% 30.41 in 10.0 mi West 5.8 mph - N/A   Clear
8:35 PM 19.4 °F 11.5 °F 12.2 °F 74% 30.41 in 10.0 mi West 5.8 mph - N/A   Clear
8:55 PM 19.4 °F 10.4 °F 12.2 °F 74% 30.42 in 10.0 mi West 6.9 mph - N/A   Clear
9:15 PM 19.4 °F 11.5 °F 12.2 °F 74% 30.42 in 10.0 mi West 5.8 mph - N/A   Clear
9:35 PM 19.4 °F 11.5 °F 12.2 °F 74% 30.43 in 10.0 mi West 5.8 mph - N/A   Clear
9:55 PM 19.4 °F 10.4 °F 12.2 °F 74% 30.43 in 10.0 mi West 6.9 mph - N/A   Clear
10:15 PM 19.4 °F 10.4 °F 12.2 °F 74% 30.44 in 10.0 mi West 6.9 mph - N/A   Clear
10:35 PM 19.4 °F 10.4 °F 12.2 °F 74% 30.44 in 10.0 mi West 6.9 mph - N/A   Clear
10:55 PM 19.4 °F 10.4 °F 12.2 °F 74% 30.44 in 10.0 mi West 6.9 mph - N/A   Clear
11:15 PM 19.4 °F 12.8 °F 12.2 °F 74% 30.44 in 10.0 mi West 4.6 mph - N/A   Clear
11:35 PM 19.4 °F 9.5 °F 12.2 °F 74% 30.44 in 10.0 mi West 8.1 mph - N/A   Clear
11:55 PM 19.4 °F 7.9 °F 10.4 °F 68% 30.45 in 10.0 mi West 10.4 mph - N/A   Clear